Regional Weather Roundup
Issued by NWS

Home | Current Version | Previous Version | Graphics & Text | Print | Product List | Glossary On
Versions: 1 2 3 4 5 6 7 8 9 10 11 12 13 14 15 16 17 18 19 20 21 22 23 24 25 26 27 28 29 30 31 32 33 34 35 36 37 38 39 40 41 42 43 44 45 46 47 48 49 50
000
ASUS43 KMPX 300101
RWRMN
WEATHER ROUNDUP FOR MINNESOTA
NATIONAL WEATHER SERVICE TWIN CITIES/CHANHASSEN MN
800 PM CDT SUN MAY 29 2016


NOTE: "FAIR" INDICATES FEW OR NO CLOUDS BELOW 12,000 FEET WITH NO
SIGNIFICANT WEATHER AND/OR OBSTRUCTIONS TO VISIBILITY. N/A MEANS
CURRENT SKY AND/OR WEATHER CONDITIONS ARE NOT AVAILABLE.

MNZ060>063-068>070-300200-
   Twin Cities Metro

CITY           SKY/WX    TMP DP  RH WIND       PRES   REMARKS
TWIN CITIES    PTCLDY    73  57  57 N9        29.94R
ST PAUL        MOCLDY    70  57  63 NW5       29.94R
CRYSTAL        PTCLDY    73  56  54 CALM      29.93R
BLAINE         PTCLDY    72  63  73 CALM      29.93S
EDEN PRAIRIE   CLEAR     74  56  53 NW6       29.93R
SOUTH ST PAUL  CLOUDY    72  54  54 N8        29.94R
LAKE ELMO      LGT RAIN  66  61  82 SW6       29.95R
$$
MNZ001>005-007-008-013>017-022>024-027-028-300200-
   Northwest Minnesota

CITY           SKY/WX    TMP DP  RH WIND       PRES   REMARKS
BEMIDJI        MOCLDY    68  50  52 NW7       29.93R
HALLOCK        MOSUNNY   72  50  46 NW6       29.89S
ROSEAU         SUNNY     68  55  64 W6        29.89S
WARROAD        CLEAR     66  54  63 W9        29.89R
THIEF RVR FALL SUNNY     70  50  49 W6        29.93R
CROOKSTON      SUNNY     72  52  49 NW6       29.91S
FOSSTON        CLEAR     70  52  52 NW5       29.94R
DETROIT LAKES  CLEAR     70  45  40 NW8       29.95S
MOORHEAD       CLEAR     73  52  46 NW6       29.93S
PARK RAPIDS    CLEAR     69  52  54 NW9       29.94S
MAHNOMEN       FAIR      69  51  52 W8        29.93R
$$
MNZ006-009>011-018-025>026-300200-
   North Central Minnesota

CITY           SKY/WX    TMP DP  RH WIND       PRES   REMARKS
BAUDETTE       PTCLDY    66  54  65 NW6       29.88R
FLAG ISLAND    PTCLDY    64  54  68 NW14      29.86S
INTL FALLS     MOCLDY    65  54  67 NW6       29.87S
WASKISH        CLEAR     66  54  63 W9        29.90R
BIG FORK       CLEAR     66  54  63 W8        29.90S
LONGVILLE      PTCLDY    68  52  56 W6        29.93S
GRAND RAPIDS   PTCLDY    67  54  63 SW5       29.93R
CRANE LAKE     PTCLDY    63  55  77 CALM      29.89S
ORR            MOCLDY    63  55  77 CALM      29.86R
COOK           MOCLDY    64  55  72 W3        29.89S
WALKER         FAIR      67  50  54 W7        29.93S
$$
MNZ012-019>021-037-300200-
   Northeast Minnesota

CITY           SKY/WX    TMP DP  RH WIND       PRES   REMARKS
DULUTH         PTCLDY    67  52  58 NW10      29.90R
ELY            CLEAR     61  54  77 W6        29.89R
HIBBING        CLEAR     64  52  64 W6        29.90R
EVELETH        PTCLDY    64  52  63 W5        29.91S
DULUTH HARBOR  PTCLDY    68  55  64 W10       29.90R
TWO HARBORS      N/A     70  57  64 W6        29.87R
SILVER BAY     CLEAR     66  54  63 W5        29.86R
GRAND MARAIS     N/A     64  54  69 VRB6      29.81R
G MARAIS ARPRT CLEAR     57  50  77 W9G16     29.85R
$$
MNZ029>031-032-039>041-046>048-054>057-064-300200-
   West Central Minnesota

CITY           SKY/WX    TMP DP  RH WIND       PRES   REMARKS
FERGUS FALLS   CLEAR     73  43  33 NW12      29.90S
WHEATON        CLEAR     77  46  33 W8        29.96S
MORRIS         CLEAR     73  45  35 NW9       29.94S
ALEXANDRIA     CLEAR     71  50  47 N7        29.96S
ELBOW LAKE     FAIR      73  46  38 NW8       29.95S
WADENA         PTCLDY    70  48  46 NW6       29.94S
GLENWOOD       CLEAR     72  46  40 NW9       29.96S
APPLETON       CLEAR     79  39  24 NW8       29.94F
ORTONVILLE     CLEAR     77  43  29 NW7       29.95S
MADISON        CLEAR     73  45  35 N7        29.96S
WILLMAR        FAIR      73  48  40 NW10      29.96F
$$
MNZ033>034-036-042>043-049>051-058-059-300200-
   Central Minnesota

CITY           SKY/WX    TMP DP  RH WIND       PRES   REMARKS
ST CLOUD       CLEAR     73  55  53 NW8       29.93S
SAUK CENTRE    FAIR      72  49  45 NW9       29.95S
PAYNESVILLE    CLEAR     74  45  35 W8G16     29.96S
AITKIN         PTCLDY    70  46  43 W3        29.92S
PINE RIVER     MOCLDY    68  54  60 W6        29.97S
BRAINERD       CLEAR     69  51  52 W8        29.94S
STAPLES        CLEAR     70  48  46 NW9       29.94S
LONG PRAIRIE   FAIR      70  52  52 W6        29.96R
LITTLE FALLS   PTCLDY   N/A N/A N/A NW5         N/A
LITCHFIELD     CLEAR     73  54  49 NW6       29.96S
BUFFALO        PTCLDY    73  53  49 W6        29.95S
MAPLE LAKE     CLEAR     73  57  56 W9        29.95S
HUTCHINSON     PTCLDY    74  61  65 NW7       29.97S
$$
MNZ037-044-045-052-053-300200-
   East Central Minnesota

CITY           SKY/WX    TMP DP  RH WIND       PRES   REMARKS
PRINCETON      CLEAR     73  55  53 W7        29.93S
MORA           PTCLDY    70  54  56 NW3       29.94R
CAMBRIDGE        N/A     75  55  50 W5        29.91S
RUSH CITY      PTCLDY    71  57  61 CALM      29.93R
MOOSE LAKE     PTCLDY    68  52  56 NW3       29.91R
HINCKLEY       FAIR      72  55  56 CALM      29.92S
CLOQUET        CLEAR     66  52  59 W8        29.92R
MCGREGOR       MOCLDY    68  54  60 W5        29.93R
$$
MNZ071>073-080-081-089-090-097-098-300200-
   Southwest Minnesota

CITY           SKY/WX    TMP DP  RH WIND       PRES   REMARKS
MONTEVIDEO     CLEAR     77  43  29 N8        29.97S
GRANITE FALLS  CLEAR     78  45  30 NW8       29.97F
CANBY          CLEAR     75  50  40 W5        29.97F
MARSHALL       CLEAR     76  46  34 NW9       29.97S
REDWOOD FALLS  CLEAR     75  44  33 NW8       29.95S
OLIVIA         CLEAR     70  41  35 NW8       29.95S
PIPESTONE      CLEAR     73  45  35 NW5       30.00F
WINDOM         CLEAR     73  46  38 CALM      29.99S
WORTHINGTON      N/A     71  53  52 NW7       30.01S
JACKSON        CLEAR     73  45  35 NW6       30.00S
TRACY          CLEAR     75  51  42 NW6       29.98F
SLAYTON        CLEAR     73  46  38 NW7       30.01S
$$
MNZ065>067-074>077-082>085-091>093-300200-
   South Central Minnesota

CITY           SKY/WX    TMP DP  RH WIND       PRES   REMARKS
MANKATO        CLEAR     73  57  56 N7        29.95S
NEW ULM        CLEAR     73  50  43 NW9       29.95S
ST JAMES       CLEAR     70  45  40 W9        29.97S
FAIRMONT       CLEAR     75  45  33 NW9       29.98R
GLENCOE        CLEAR     73  61  65 NW6       29.95S
FARIBAULT      CLOUDY    66  61  82 NW3       29.96R
OWATONNA       CLEAR     73  55  53 W7        29.96S
WASECA         PTCLDY    72  54  53 W9        29.97S
ALBERT LEA     CLEAR     75  52  43 NW6       29.97R
$$
MNZ078>079-086>088-094>096-300200-
   Southeast Minnesota

CITY           SKY/WX    TMP DP  RH WIND       PRES   REMARKS
ROCHESTER      CLEAR     72  61  68 NW6       29.96F
RED WING       CLEAR     73  57  56 W3        29.92S
STANTON        CLOUDY    73  58  60 W6        29.94R
DODGE CENTER   CLEAR     73  55  53 NW5       29.97S
WINONA         CLEAR     73  59  60 CALM      29.94S
AUSTIN         CLEAR     73  54  49 W5        29.96S
PRESTON        CLEAR     71  58  64 CALM      29.98S
$$
ABBREVIATIONS USED IN REMARKS
   TC - TEMPERATURES IN CELSIUS
  WCI - WIND CHILL INDEX
   HX - HEAT INDEX
  VSB - VISIBILITY
$$




USA.gov is the U.S. government's official web portal to all federal, state and local government web resources and services.